Back to catalog

COSMOS 886 DEB

AliveLEO
NORAD 9651·DEBRIS·🇷🇺 Russia

Launched Dec 27, 1976 from Baikonur Cosmodrome

Loading…

Next Passes (next 24 hours)

TLE

FreshSource: Space-Track

Epoch: Sep 14, 2026, 09:58 UTC

1 09651U 76126H   26257.41540464  .00000604  00000-0  23321-3 0  9997
2 09651  65.7913  49.4492 0776289  55.5398 311.6523 13.34884052363933

Track COSMOS 886 DEB in real time with AllMySat

Download on the App Store